User: anonymous   Login
Location: Invercargill
(46.4000°S, 168.3500°E)
Time: 18:05:39
(UTC+12:00)
Language:

SR - Orbit

View from above orbital plane
View from above orbital plane
View from above satellite
View from above satellite

Ground track
Ground track

The orbit data is extracted from the following two-line orbital elements,

1    46U 60007B   19198.72910904 -.00000062 +00000-0 +10867-4 0  9998
2    46 066.6891 233.6398 0207646 019.3888 341.4969 14.49233264090467
Epoch (UTC): 17 July 2019 17:29:55
Eccentricity: 0.0207646
inclination: 66.6891°
perigee height: 580 km
apogee height: 876 km
right ascension of ascending node: 233.6398°
argument of perigee: 19.3888°
revolutions per day: 14.49233264
mean anomaly at epoch: 341.4969°
orbit number at epoch: 9046

The dashed part of the orbit path shows where the satellite is in the earth's shadow,  

DLR